Tracking 19245 objects as of 18-Aug-2018
HD Live streaming from Space Station
objects crossing your sky now

FENGYUN 1C DEB

Track FENGYUN 1C DEB now!
10-day predictions


NORAD ID: 30010
Int'l Code: 1999-025MK
Perigee: 767.5 km
Apogee: 874.6 km
Inclination: 98.8 °
Period: 101.2 minutes
Semi major axis: 7192 km
RCS: 0.1109 m2 (medium)
Launch date: May 10, 1999
Source: People's Republic of China (PRC)
Launch site: Taiyaun Space Center, China (TSC)

Note: This is SATELLITE DEBRIS
aabbcc
Your satellite tracking list
Your tracking list is empty




NASA's NSSDC Master Catalog

Two Line Element Set (TLE):
1 30010U 99025MK  18229.44047913  .00000009  00000-0  23080-4 0  9999
2 30010  98.8255 335.1535 0074451 347.0179  71.9552 14.23393804602228
Source of the keplerian elements: AFSPC